Bei Facebook empfehlenBei Twitter postenGoogle plusPinterest

Das Wetter im Erzgebirge am 07.01.2017

Wetter und Klima am 07.01.2017 Holzhau im Erzgebirge (630m ü.NN)
Letzte gemessene Temperatur und Uhrzeit der Messung23:45:00 Uhr-6.20 °C
Temperatur (Maximum / Höchstwert) und Uhrzeit der Messung12:45:00 Uhr-6.10 °C
Temperatur (Minimum / Tiefstwert) und Uhrzeit der Messung04:00:00-18.20 °C
Errechneter Absolutwert der Temperaturschwankungen zwischen Tmin und Tmax des Tages12.10 K
Errechnete Tagesmitteltemperatur-11.03229 °C
Gesamt - Niederschlag des Tages (in flüssiger Form)0.00 Liter / m²
Luftdruck (Maximum / Höchstwert) und Zeitpunkt der Messung00:00:00 Uhr1029.50 hPa
Luftdruck (Minimum / Tiefstwert) und Zeitpunkt der Messung23:45:00 Uhr1018.10 hPa
Errechneter Absolutwert der Luftdruckschwankungen des Tages11.40 hPa
Höchste gemessene Windgeschwindigkeit und Uhrzeit der Messung23:45:00 Uhr0.00 km/h
Errechnete Windhäufigkeit in Relation zu den Messwerten des Tages0.00000 %
Niedrigste Windkühle (Windchill) und Zeitpunkt der Messung04:00:00 Uhr-18.20 °C
Taupunkt (Maximum / Höchstwert) und Uhrzeit der Messung23:45:00 Uhr-7.70 °C
Taupunkt (Minimum / Tiefstwert) und Uhrzeit der Messung04:00:00-20.20 °C
Anzahl der automatisch eingelesenen Messwerte 96

Detaillierte Wetter- und Klima- Messwerte für den 07.01.2017 in Holzhau im Erzgebirge (630m ü.NN)
ZeitTemperaturLuftdruckRel. LuftfeuchteWindWindrichtungWindchillTaupunktNiederschlag l/m²
23:45:00-6.20 °C1018.10 hPa90.00 %-7.70 °C 
23:30:00-6.20 °C1018.40 hPa90.00 %-7.70 °C 
23:15:00-6.20 °C1018.40 hPa90.00 %-7.70 °C 
23:00:00-6.20 °C1018.30 hPa90.00 %-7.70 °C 
22:45:00-6.20 °C1018.40 hPa90.00 %-7.70 °C 
22:30:00-6.20 °C1018.60 hPa90.00 %-7.70 °C 
22:15:00-6.20 °C1018.70 hPa90.00 %-7.70 °C 
22:00:00-6.40 °C1018.50 hPa90.00 %-7.90 °C 
21:45:00-6.40 °C1018.50 hPa90.00 %-7.90 °C 
21:30:00-6.70 °C1018.50 hPa89.00 %-8.40 °C 
21:15:00-6.90 °C1018.70 hPa89.00 %-8.60 °C 
21:00:00-7.30 °C1018.50 hPa89.00 %-9.00 °C 
20:45:00-7.60 °C1018.70 hPa88.00 %-9.40 °C 
20:30:00-7.80 °C1018.70 hPa88.00 %-9.60 °C 
20:15:00-7.90 °C1018.80 hPa88.00 %-9.70 °C 
20:00:00-8.10 °C1018.90 hPa87.00 %-10.10 °C 
19:45:00-8.10 °C1018.90 hPa87.00 %-10.10 °C 
19:30:00-8.20 °C1019.20 hPa86.00 %-10.40 °C 
19:15:00-8.20 °C1019.50 hPa86.00 %-10.40 °C 
19:00:00-8.20 °C1019.50 hPa85.00 %-10.50 °C 
18:45:00-8.40 °C1019.80 hPa85.00 %-10.70 °C 
18:30:00-8.40 °C1020.00 hPa84.00 %-10.90 °C 
18:15:00-8.40 °C1020.10 hPa84.00 %-10.90 °C 
18:00:00-8.40 °C1020.30 hPa84.00 %-10.90 °C 
17:45:00-8.40 °C1020.60 hPa84.00 %-10.90 °C 
17:30:00-8.60 °C1020.50 hPa84.00 %-11.10 °C 
17:15:00-8.60 °C1020.80 hPa84.00 %-11.10 °C 
17:00:00-8.60 °C1021.10 hPa83.00 %-11.30 °C 
16:45:00-8.40 °C1021.30 hPa82.00 %-11.20 °C 
16:30:00-8.40 °C1021.40 hPa81.00 %-11.40 °C 
16:15:00-8.10 °C1021.50 hPa80.00 %-11.30 °C 
16:00:00-7.90 °C1021.30 hPa78.00 %-11.40 °C 
15:45:00-7.70 °C1021.40 hPa77.00 %-11.40 °C 
15:30:00-7.50 °C1021.40 hPa78.00 %-11.10 °C 
15:15:00-7.20 °C1021.70 hPa77.00 %-10.90 °C 
15:00:00-6.90 °C1022.00 hPa76.00 %-10.80 °C 
14:45:00-6.70 °C1021.90 hPa74.00 %-11.00 °C 
14:30:00-6.20 °C1022.10 hPa75.00 %-10.40 °C 
14:15:00-6.20 °C1022.40 hPa75.00 %-10.40 °C 
14:00:00-6.40 °C1022.50 hPa76.00 %-10.40 °C 
13:45:00-6.20 °C1022.80 hPa75.00 %-10.40 °C 
13:30:00-6.50 °C1022.80 hPa76.00 %-10.50 °C 
13:15:00-6.60 °C1022.90 hPa76.00 %-10.60 °C 
13:00:00-6.20 °C1022.90 hPa76.00 %-10.20 °C 
12:45:00-6.10 °C1023.20 hPa74.00 %-10.40 °C 
12:30:00-6.10 °C1023.20 hPa76.00 %-10.10 °C 
12:15:00-6.60 °C1023.50 hPa77.00 %-10.40 °C 
12:00:00-6.80 °C1023.70 hPa78.00 %-10.40 °C 
11:45:00-6.70 °C1024.00 hPa76.00 %-10.60 °C 
11:30:00-6.40 °C1024.20 hPa77.00 %-10.20 °C 
11:15:00-6.20 °C1024.40 hPa78.00 %-9.80 °C 
11:00:00-6.10 °C1024.60 hPa79.00 %-9.50 °C 
10:45:00-6.40 °C1024.90 hPa83.00 %-9.10 °C 
10:30:00-7.70 °C1025.10 hPa85.00 %-10.00 °C 
10:15:00-9.40 °C1025.20 hPa88.00 %-11.20 °C 
10:00:00-11.30 °C1025.20 hPa89.00 %-12.90 °C 
09:45:00-12.20 °C1025.20 hPa88.00 %-14.00 °C 
09:30:00-13.10 °C1025.40 hPa88.00 %-14.90 °C 
09:15:00-13.60 °C1025.50 hPa88.00 %-15.40 °C 
09:00:00-14.10 °C1025.80 hPa88.00 %-15.80 °C 
08:45:00-14.60 °C1025.80 hPa88.00 %-16.30 °C 
08:30:00-15.00 °C1025.80 hPa87.00 %-16.90 °C 
08:15:00-15.30 °C1025.90 hPa87.00 %-17.20 °C 
08:00:00-15.60 °C1026.10 hPa87.00 %-17.50 °C 
07:45:00-15.80 °C1026.20 hPa87.00 %-17.70 °C 
07:30:00-16.10 °C1026.30 hPa87.00 %-18.00 °C 
07:15:00-16.20 °C1026.40 hPa87.00 %-18.10 °C 
07:00:00-16.40 °C1026.20 hPa86.00 %-18.40 °C 
06:45:00-16.60 °C1026.50 hPa86.00 %-18.60 °C 
06:30:00-16.70 °C1026.50 hPa86.00 %-18.70 °C 
06:15:00-16.70 °C1026.70 hPa86.00 %-18.70 °C 
06:00:00-16.70 °C1027.00 hPa86.00 %-18.70 °C 
05:45:00-16.80 °C1027.10 hPa86.00 %-18.80 °C 
05:30:00-17.00 °C1027.20 hPa86.00 %-19.00 °C 
05:15:00-17.20 °C1027.40 hPa86.00 %-19.20 °C 
05:00:00-17.60 °C1027.50 hPa86.00 %-19.60 °C 
04:45:00-17.60 °C1027.60 hPa86.00 %-19.60 °C 
04:30:00-17.60 °C1027.70 hPa86.00 %-19.60 °C 
04:15:00-17.90 °C1027.60 hPa86.00 %-19.90 °C 
04:00:00-18.20 °C1027.70 hPa86.00 %-20.20 °C 
03:45:00-18.20 °C1027.90 hPa86.00 %-20.20 °C 
03:30:00-18.10 °C1027.90 hPa86.00 %-20.10 °C 
03:15:00-18.00 °C1028.20 hPa86.00 %-20.00 °C 
03:00:00-18.10 °C1028.30 hPa86.00 %-20.10 °C 
02:45:00-18.10 °C1028.40 hPa86.00 %-20.10 °C 
02:30:00-18.10 °C1028.50 hPa86.00 %-20.10 °C 
02:15:00-17.70 °C1028.50 hPa86.00 %-19.70 °C 
02:00:00-17.60 °C1028.60 hPa86.00 %-19.60 °C 
01:45:00-17.20 °C1028.70 hPa86.00 %-19.20 °C 
01:30:00-16.90 °C1028.70 hPa85.00 %-19.10 °C 
01:15:00-16.40 °C1028.80 hPa86.00 %-18.40 °C 
01:00:00-15.60 °C1028.90 hPa86.00 %-17.60 °C 
00:45:00-14.90 °C1029.00 hPa86.00 %-16.90 °C 
00:30:00-14.20 °C1029.30 hPa87.00 %-16.10 °C 
00:15:00-13.90 °C1029.40 hPa87.00 %-15.80 °C 
00:00:00-13.60 °C1029.50 hPa87.00 %-15.50 °C 

Permanenter Link zu dieser Seite: Wetter im Erzgebirge am 07.01.2017
Performance-Info: Die Erstellung der Seite / Statistik(en) / Tabelle(n) erforderte 5 Datenbankserver-Abfrage(n) und dauerte 123 Millisekunden. (Dieser Messwert ist von der Gesamt-Auslastung des Servers abhängig.)
Erzgebirge - Wetter | Erzgebirge - Wetter (Mobilgeräte) | Komplette Klimadatenbank